| time (UTC) | temp F | wind direction | speed MPH | gust MPH | rain 1hr in | rain 24hr in | rain mn in | humidity % | barometer mb |
| 20260505100833 | 49 | 222 | 0.0 | 0.0 | 0.00 | 0.00 | 0.00 | 85 | 1017.3 |
| 20260505100557 | 49 | 214 | 0.0 | 0.0 | 0.00 | 0.00 | 0.00 | 85 | 1017.3 |
| 20260505100137 | 49 | 220 | 0.0 | 0.0 | 0.00 | 0.00 | 0.00 | 85 | 1017.3 |
| 20260505095934 | 49 | 216 | 0.0 | 0.0 | 0.00 | 0.00 | 0.00 | 85 | 1017.3 |
| 20260505095729 | 49 | 220 | 0.0 | 0.0 | 0.00 | 0.00 | 0.00 | 85 | 1017.3 |
| 20260505095524 | 49 | 219 | 0.0 | 0.0 | 0.00 | 0.00 | 0.00 | 85 | 1016.9 |
| 20260505095321 | 49 | 220 | 0.0 | 0.0 | 0.00 | 0.00 | 0.00 | 85 | 1017.3 |
| 20260505095115 | 49 | 223 | 0.0 | 0.0 | 0.00 | 0.00 | 0.00 | 85 | 1017.3 |
| 20260505094911 | 49 | 215 | 0.0 | 0.0 | 0.00 | 0.00 | 0.00 | 84 | 1016.9 |
| 20260505094849 | 49 | 213 | 0.0 | 0.0 | 0.00 | 0.00 | 0.00 | 85 | 1016.9 |
| 20260505094432 | 50 | 214 | 0.0 | 0.0 | 0.00 | 0.00 | 0.00 | 85 | 1016.9 |
| 20260505094227 | 50 | 214 | 0.0 | 0.0 | 0.00 | 0.00 | 0.00 | 85 | 1017.3 |
| 20260505094024 | 50 | 222 | 0.0 | 0.0 | 0.00 | 0.00 | 0.00 | 85 | 1017.3 |
| 20260505093818 | 50 | 220 | 0.0 | 0.0 | 0.00 | 0.00 | 0.00 | 85 | 1016.9 |
| 20260505093613 | 50 | 213 | 0.0 | 0.0 | 0.00 | 0.00 | 0.00 | 85 | 1017.3 |
| 20260505093409 | 50 | 227 | 0.0 | 0.0 | 0.00 | 0.00 | 0.00 | 85 | 1017.3 |
| 20260505093205 | 50 | 225 | 0.0 | 0.0 | 0.00 | 0.00 | 0.00 | 85 | 1017.3 |
| 20260505093001 | 50 | 215 | 0.0 | 0.0 | 0.00 | 0.00 | 0.00 | 85 | 1017.3 |
| 20260505092757 | 50 | 217 | 0.0 | 0.0 | 0.00 | 0.00 | 0.00 | 85 | 1017.3 |
| 20260505092735 | 50 | 230 | 0.0 | 0.0 | 0.00 | 0.00 | 0.00 | 85 | 1017.3 |
| 20260505092318 | 50 | 223 | 0.0 | 0.0 | 0.00 | 0.00 | 0.00 | 85 | 1017.3 |
| 20260505092256 | 50 | 223 | 0.0 | 0.0 | 0.00 | 0.00 | 0.00 | 85 | 1017.3 |
| 20260505091840 | 50 | 222 | 0.0 | 0.0 | 0.00 | 0.00 | 0.00 | 85 | 1017.3 |
| 20260505091634 | 50 | 222 | 0.0 | 0.0 | 0.00 | 0.00 | 0.00 | 85 | 1017.3 |
| 20260505091430 | 50 | 223 | 0.0 | 0.0 | 0.00 | 0.00 | 0.00 | 85 | 1016.9 |
| 20260505091226 | 50 | 223 | 0.0 | 0.0 | 0.00 | 0.00 | 0.00 | 85 | 1016.9 |
| 20260505091021 | 50 | 223 | 0.0 | 0.0 | 0.00 | 0.00 | 0.00 | 84 | 1016.9 |
| 20260505090813 | 50 | 222 | 0.0 | 0.0 | 0.00 | 0.00 | 0.00 | 84 | 1016.9 |
| 20260505090609 | 50 | 229 | 0.0 | 0.0 | 0.00 | 0.00 | 0.00 | 84 | 1016.9 |
| 20260505090406 | 50 | 223 | 0.0 | 0.0 | 0.00 | 0.00 | 0.00 | 84 | 1017.3 |
| 20260505090202 | 50 | 219 | 0.0 | 0.0 | 0.00 | 0.00 | 0.00 | 84 | 1016.9 |
| 20260505085959 | 50 | 215 | 0.0 | 0.0 | 0.00 | 0.00 | 0.00 | 84 | 1016.9 |
| 20260505085755 | 50 | 218 | 0.0 | 0.0 | 0.00 | 0.00 | 0.00 | 84 | 1016.9 |
| 20260505085733 | 50 | 227 | 0.0 | 0.0 | 0.00 | 0.00 | 0.00 | 84 | 1016.9 |
| 20260505085317 | 51 | 217 | 0.0 | 0.0 | 0.00 | 0.00 | 0.00 | 84 | 1016.9 |
| 20260505085112 | 51 | 223 | 0.0 | 0.0 | 0.00 | 0.00 | 0.00 | 84 | 1016.9 |
| 20260505084907 | 51 | 222 | 0.0 | 0.0 | 0.00 | 0.00 | 0.00 | 84 | 1016.9 |
| 20260505084704 | 51 | 222 | 0.0 | 0.0 | 0.00 | 0.00 | 0.00 | 84 | 1016.9 |
| 20260505084459 | 51 | 220 | 0.0 | 0.0 | 0.00 | 0.00 | 0.00 | 84 | 1016.9 |
| 20260505084255 | 51 | 228 | 0.0 | 0.0 | 0.00 | 0.00 | 0.00 | 84 | 1016.9 |
| 20260505084051 | 51 | 229 | 0.0 | 0.0 | 0.00 | 0.00 | 0.00 | 83 | 1016.9 |
| 20260505083846 | 51 | 214 | 0.0 | 0.0 | 0.00 | 0.00 | 0.00 | 83 | 1016.9 |
| 20260505083642 | 51 | 213 | 0.0 | 0.0 | 0.00 | 0.00 | 0.00 | 83 | 1017.3 |
| 20260505083438 | 51 | 223 | 0.0 | 0.0 | 0.00 | 0.00 | 0.00 | 83 | 1016.9 |
| 20260505083417 | 51 | 215 | 0.0 | 0.0 | 0.00 | 0.00 | 0.00 | 83 | 1016.9 |
| 20260505082959 | 51 | 106 | 0.0 | 0.0 | 0.00 | 0.00 | 0.00 | 83 | 1016.9 |
| 20260505082756 | 51 | 132 | 0.0 | 0.0 | 0.00 | 0.00 | 0.00 | 83 | 1016.9 |
| 20260505082552 | 51 | 129 | 0.0 | 0.0 | 0.00 | 0.00 | 0.00 | 83 | 1016.9 |
| 20260505082348 | 51 | 135 | 0.0 | 0.0 | 0.00 | 0.00 | 0.00 | 83 | 1016.6 |
| 20260505082144 | 51 | 215 | 0.0 | 0.0 | 0.00 | 0.00 | 0.00 | 83 | 1016.9 |
| 20260505082122 | 51 | 226 | 0.0 | 0.0 | 0.00 | 0.00 | 0.00 | 83 | 1016.6 |
| 20260505081706 | 51 | 223 | 0.0 | 0.0 | 0.00 | 0.00 | 0.00 | 83 | 1016.6 |
| 20260505081644 | 51 | 223 | 0.0 | 0.0 | 0.00 | 0.00 | 0.00 | 82 | 1016.6 |
| 20260505081226 | 51 | 228 | 0.0 | 0.0 | 0.00 | 0.00 | 0.00 | 82 | 1016.9 |
| 20260505081022 | 51 | 215 | 0.0 | 0.0 | 0.00 | 0.00 | 0.00 | 82 | 1016.6 |
| 20260505080818 | 51 | 212 | 0.0 | 0.0 | 0.00 | 0.00 | 0.00 | 82 | 1016.9 |
| 20260505080614 | 52 | 207 | 0.0 | 0.0 | 0.00 | 0.00 | 0.00 | 82 | 1016.6 |
| 20260505080553 | 52 | 190 | 0.0 | 0.0 | 0.00 | 0.00 | 0.00 | 82 | 1016.6 |
| 20260505080132 | 52 | 205 | 0.0 | 0.0 | 0.00 | 0.00 | 0.00 | 81 | 1016.6 |
| 20260505075927 | 52 | 216 | 0.0 | 0.0 | 0.00 | 0.00 | 0.00 | 82 | 1016.6 |
| 20260505075723 | 52 | 207 | 0.0 | 0.0 | 0.00 | 0.00 | 0.00 | 81 | 1016.6 |
| 20260505075519 | 52 | 203 | 0.0 | 0.0 | 0.00 | 0.00 | 0.00 | 81 | 1016.6 |
| 20260505075316 | 52 | 188 | 0.0 | 0.0 | 0.00 | 0.00 | 0.00 | 81 | 1016.6 |
| 20260505075254 | 52 | 201 | 0.0 | 0.0 | 0.00 | 0.00 | 0.00 | 81 | 1016.3 |
| 20260505074836 | 52 | 213 | 0.0 | 1.0 | 0.00 | 0.00 | 0.00 | 81 | 1016.6 |
| 20260505074632 | 52 | 202 | 1.0 | 2.0 | 0.00 | 0.00 | 0.00 | 81 | 1016.6 |
| 20260505074428 | 52 | 208 | 1.0 | 2.0 | 0.00 | 0.00 | 0.00 | 81 | 1016.6 |
| 20260505074406 | 52 | 200 | 1.0 | 1.0 | 0.00 | 0.00 | 0.00 | 81 | 1016.6 |
| 20260505073949 | 52 | 191 | 0.0 | 0.0 | 0.00 | 0.00 | 0.00 | 81 | 1016.6 |
| 20260505073927 | 52 | 159 | 0.0 | 0.0 | 0.00 | 0.00 | 0.00 | 81 | 1016.6 |
| 20260505073509 | 52 | 159 | 0.0 | 0.0 | 0.00 | 0.00 | 0.00 | 81 | 1016.3 |
| 20260505073305 | 52 | 188 | 0.0 | 0.0 | 0.00 | 0.00 | 0.00 | 81 | 1016.6 |
| 20260505073101 | 52 | 190 | 0.0 | 0.0 | 0.00 | 0.00 | 0.00 | 81 | 1016.6 |
| 20260505072858 | 52 | 177 | 0.0 | 0.0 | 0.00 | 0.00 | 0.00 | 81 | 1016.3 |
| 20260505072653 | 52 | 204 | 0.0 | 0.0 | 0.00 | 0.00 | 0.00 | 81 | 1016.6 |
| 20260505072449 | 52 | 208 | 0.0 | 0.0 | 0.00 | 0.00 | 0.00 | 81 | 1016.3 |
| 20260505072245 | 52 | 159 | 0.0 | 0.0 | 0.00 | 0.00 | 0.00 | 81 | 1016.3 |
| 20260505072223 | 52 | 161 | 0.0 | 0.0 | 0.00 | 0.00 | 0.00 | 81 | 1016.3 |
| 20260505071805 | 52 | 205 | 0.0 | 0.0 | 0.00 | 0.00 | 0.00 | 80 | 1016.3 |
| 20260505071559 | 53 | 191 | 0.0 | 0.0 | 0.00 | 0.00 | 0.00 | 80 | 1016.3 |
| 20260505071537 | 53 | 175 | 0.0 | 0.0 | 0.00 | 0.00 | 0.00 | 80 | 1016.3 |
| 20260505071119 | 53 | 157 | 1.0 | 2.0 | 0.00 | 0.00 | 0.00 | 80 | 1016.3 |
| 20260505070915 | 53 | 155 | 0.0 | 1.0 | 0.00 | 0.00 | 0.00 | 80 | 1016.3 |
| 20260505070711 | 53 | 183 | 1.0 | 2.0 | 0.00 | 0.00 | 0.00 | 80 | 1016.3 |
| 20260505070649 | 53 | 157 | 0.0 | 1.0 | 0.00 | 0.00 | 0.00 | 80 | 1016.3 |
| 20260505070413 | 53 | 217 | 3.0 | 4.0 | 0.00 | 0.00 | 0.00 | 80 | 1016.3 |
| 20260505065951 | 53 | 148 | 4.0 | 5.0 | 0.00 | 0.00 | 0.00 | 80 | 1016.3 |
| 20260505065746 | 53 | 172 | 2.0 | 2.0 | 0.00 | 0.00 | 0.00 | 80 | 1016.3 |
| 20260505065724 | 53 | 186 | 1.0 | 2.0 | 0.00 | 0.00 | 0.00 | 80 | 1016.3 |
| 20260505065304 | 53 | 204 | 1.0 | 2.0 | 0.00 | 0.00 | 0.00 | 80 | 1016.3 |
| 20260505065059 | 53 | 203 | 1.0 | 2.0 | 0.00 | 0.00 | 0.00 | 79 | 1015.9 |
| 20260505064856 | 53 | 213 | 3.0 | 4.0 | 0.00 | 0.00 | 0.00 | 79 | 1015.9 |
| 20260505064651 | 53 | 191 | 3.0 | 3.0 | 0.00 | 0.00 | 0.00 | 79 | 1015.9 |
| 20260505064446 | 53 | 175 | 0.0 | 1.0 | 0.00 | 0.00 | 0.00 | 79 | 1016.3 |
| 20260505064242 | 53 | 161 | 3.0 | 4.0 | 0.00 | 0.00 | 0.00 | 79 | 1015.9 |
| 20260505064038 | 53 | 187 | 3.0 | 4.0 | 0.00 | 0.00 | 0.00 | 79 | 1015.9 |
| 20260505064016 | 53 | 216 | 1.0 | 2.0 | 0.00 | 0.00 | 0.00 | 79 | 1016.3 |
| 20260505063558 | 53 | 157 | 1.0 | 1.0 | 0.00 | 0.00 | 0.00 | 79 | 1016.3 |
| 20260505063354 | 53 | 185 | 3.0 | 4.0 | 0.00 | 0.00 | 0.00 | 79 | 1015.9 |
| 20260505063150 | 53 | 188 | 3.0 | 4.0 | 0.00 | 0.00 | 0.00 | 79 | 1015.9 |
| 20260505062944 | 53 | 168 | 1.0 | 1.0 | 0.00 | 0.00 | 0.00 | 79 | 1015.9 |
| 20260505062738 | 53 | 191 | 3.0 | 5.0 | 0.00 | 0.00 | 0.00 | 79 | 1015.6 |
| 20260505062534 | 53 | 158 | 3.0 | 4.0 | 0.00 | 0.00 | 0.00 | 78 | 1015.6 |
| 20260505062330 | 54 | 221 | 1.0 | 2.0 | 0.00 | 0.00 | 0.00 | 78 | 1015.6 |
| 20260505062126 | 54 | 200 | 3.0 | 3.0 | 0.00 | 0.00 | 0.00 | 78 | 1015.6 |
| 20260505061919 | 54 | 215 | 0.0 | 1.0 | 0.00 | 0.00 | 0.00 | 78 | 1015.6 |
| 20260505061715 | 54 | 124 | 2.0 | 3.0 | 0.00 | 0.00 | 0.00 | 78 | 1015.9 |
| 20260505061511 | 54 | 186 | 2.0 | 2.0 | 0.00 | 0.00 | 0.00 | 78 | 1015.6 |
| 20260505061308 | 54 | 199 | 2.0 | 2.0 | 0.00 | 0.00 | 0.00 | 78 | 1015.9 |
| 20260505061104 | 54 | 146 | 1.0 | 2.0 | 0.00 | 0.00 | 0.00 | 78 | 1015.6 |
| 20260505060900 | 54 | 161 | 4.0 | 5.0 | 0.00 | 0.00 | 0.00 | 77 | 1015.9 |
| 20260505060656 | 54 | 140 | 2.0 | 2.0 | 0.00 | 0.00 | 0.00 | 77 | 1016.3 |
| 20260505060451 | 54 | 161 | 3.0 | 3.0 | 0.00 | 0.00 | 0.00 | 77 | 1015.6 |
| 20260505060430 | 54 | 139 | 0.0 | 0.0 | 0.00 | 0.00 | 0.00 | 77 | 1015.6 |
| 20260505060010 | 54 | 200 | 3.0 | 3.0 | 0.00 | 0.00 | 0.00 | 77 | 1015.6 |
| 20260505055807 | 55 | 168 | 1.0 | 2.0 | 0.00 | 0.00 | 0.00 | 77 | 1015.6 |
| 20260505055744 | 0 | 0 | 0.0 | 0.0 | 0.00 | 0.00 | 0.00 | 100 | 1015.6 |
| 20260505055322 | 0 | 0 | 0.0 | 0.0 | 0.00 | 0.00 | 0.00 | 100 | 1015.9 |
| 20260505055117 | 0 | 0 | 0.0 | 0.0 | 0.00 | 0.00 | 0.00 | 100 | 1015.6 |
| 20260505054913 | 55 | 175 | 1.0 | 2.0 | 0.00 | 0.00 | 0.00 | 76 | 1015.6 |
| 20260505054710 | 55 | 175 | 1.0 | 2.0 | 0.00 | 0.00 | 0.00 | 76 | 1015.6 |
| 20260505054506 | 55 | 175 | 1.0 | 2.0 | 0.00 | 0.00 | 0.00 | 76 | 1015.6 |
| 20260505054301 | 55 | 175 | 1.0 | 2.0 | 0.00 | 0.00 | 0.00 | 76 | 1015.6 |
| 20260505054057 | 55 | 175 | 1.0 | 2.0 | 0.00 | 0.00 | 0.00 | 76 | 1015.2 |
| 20260505053853 | 55 | 175 | 1.0 | 2.0 | 0.00 | 0.00 | 0.00 | 76 | 1015.6 |
| 20260505053649 | 55 | 129 | 1.0 | 2.0 | 0.00 | 0.00 | 0.00 | 75 | 1015.6 |
| 20260505053445 | 56 | 180 | 2.0 | 4.0 | 0.00 | 0.00 | 0.00 | 75 | 1015.6 |
| 20260505053240 | 56 | 180 | 2.0 | 4.0 | 0.00 | 0.00 | 0.00 | 75 | 1015.6 |
| 20260505053036 | 56 | 159 | 2.0 | 3.0 | 0.00 | 0.00 | 0.00 | 75 | 1015.6 |
| 20260505052833 | 56 | 172 | 0.0 | 1.0 | 0.00 | 0.00 | 0.00 | 75 | 1015.6 |
| 20260505052627 | 56 | 189 | 1.0 | 2.0 | 0.00 | 0.00 | 0.00 | 75 | 1015.6 |
| 20260505052423 | 56 | 189 | 1.0 | 2.0 | 0.00 | 0.00 | 0.00 | 75 | 1015.6 |
| 20260505052401 | 56 | 179 | 3.0 | 3.0 | 0.00 | 0.00 | 0.00 | 75 | 1015.6 |
| 20260505052126 | 56 | 180 | 2.0 | 3.0 | 0.00 | 0.00 | 0.00 | 75 | 1015.6 |
| 20260505051706 | 56 | 180 | 2.0 | 3.0 | 0.00 | 0.00 | 0.00 | 75 | 1015.6 |
| 20260505051459 | 56 | 148 | 1.0 | 2.0 | 0.00 | 0.00 | 0.00 | 74 | 1015.6 |
| 20260505051255 | 56 | 146 | 1.0 | 2.0 | 0.00 | 0.00 | 0.00 | 74 | 1015.6 |
| 20260505051052 | 56 | 181 | 1.0 | 2.0 | 0.00 | 0.00 | 0.00 | 74 | 1015.6 |
| 20260505050847 | 56 | 181 | 1.0 | 2.0 | 0.00 | 0.00 | 0.00 | 74 | 1015.6 |
| 20260505050643 | 57 | 202 | 3.0 | 3.0 | 0.00 | 0.00 | 0.00 | 74 | 1015.6 |
| 20260505050440 | 57 | 202 | 3.0 | 3.0 | 0.00 | 0.00 | 0.00 | 74 | 1015.6 |
| 20260505050418 | 57 | 202 | 3.0 | 3.0 | 0.00 | 0.00 | 0.00 | 74 | 1015.2 |
| 20260505041634 | 0 | 0 | 0.0 | 0.0 | 0.00 | 0.00 | 0.00 | 100 | 1014.9 |
| 20260505041358 | 0 | 0 | 0.0 | 0.0 | 0.00 | 0.00 | 0.00 | 100 | 1014.6 |
| 20260505040940 | 0 | 0 | 0.0 | 0.0 | 0.00 | 0.00 | 0.00 | 100 | 1014.6 |
| 20260505040736 | 0 | 0 | 0.0 | 0.0 | 0.00 | 0.00 | 0.00 | 100 | 1014.6 |
| 20260505040510 | 0 | 0 | 0.0 | 0.0 | 0.00 | 0.00 | 0.00 | 100 | 1014.6 |
| 20260505040051 | 0 | 0 | 0.0 | 0.0 | 0.00 | 0.00 | 0.00 | 100 | 1014.6 |
| 20260505035824 | 0 | 0 | 0.0 | 0.0 | 0.00 | 0.00 | 0.00 | 100 | 1014.6 |
| 20260505035404 | 0 | 0 | 0.0 | 0.0 | 0.00 | 0.00 | 0.00 | 100 | 1014.2 |
| 20260505035200 | 0 | 0 | 0.0 | 0.0 | 0.00 | 0.00 | 0.00 | 100 | 1014.2 |
| 20260505034957 | 0 | 0 | 0.0 | 0.0 | 0.00 | 0.00 | 0.00 | 100 | 1014.2 |
| 20260505034729 | 61 | 139 | 3.0 | 4.0 | 0.00 | 0.00 | 0.00 | 69 | 1014.2 |
| 20260505034309 | 61 | 139 | 3.0 | 4.0 | 0.00 | 0.00 | 0.00 | 69 | 1014.2 |
| 20260505034105 | 61 | 139 | 3.0 | 4.0 | 0.00 | 0.00 | 0.00 | 69 | 1014.2 |
| 20260505034043 | 61 | 139 | 3.0 | 4.0 | 0.00 | 0.00 | 0.00 | 69 | 1014.2 |
| 20260505033627 | 61 | 187 | 3.0 | 4.0 | 0.00 | 0.00 | 0.00 | 68 | 1014.2 |
| 20260505033420 | 61 | 145 | 2.0 | 4.0 | 0.00 | 0.00 | 0.00 | 68 | 1014.2 |
| 20260505033217 | 61 | 145 | 2.0 | 4.0 | 0.00 | 0.00 | 0.00 | 68 | 1014.6 |
| 20260505033155 | 61 | 123 | 3.0 | 5.0 | 0.00 | 0.00 | 0.00 | 68 | 1014.2 |
| 20260505032736 | 61 | 180 | 3.0 | 4.0 | 0.00 | 0.00 | 0.00 | 68 | 1014.2 |
| 20260505032533 | 62 | 162 | 2.0 | 3.0 | 0.00 | 0.00 | 0.00 | 67 | 1014.2 |
| 20260505032307 | 62 | 115 | 1.0 | 2.0 | 0.00 | 0.00 | 0.00 | 67 | 1014.2 |
| 20260505032032 | 62 | 216 | 5.0 | 6.0 | 0.00 | 0.00 | 0.00 | 66 | 1014.2 |
| 20260505031755 | 62 | 216 | 5.0 | 6.0 | 0.00 | 0.00 | 0.00 | 66 | 1013.9 |
| 20260505031337 | 0 | 0 | 0.0 | 0.0 | 0.00 | 0.00 | 0.00 | 100 | 1013.9 |
| 20260505031131 | 63 | 204 | 1.0 | 2.0 | 0.00 | 0.00 | 0.00 | 65 | 1014.2 |
| 20260505030927 | 63 | 204 | 1.0 | 2.0 | 0.00 | 0.00 | 0.00 | 65 | 1014.2 |
| 20260505030723 | 63 | 204 | 1.0 | 2.0 | 0.00 | 0.00 | 0.00 | 65 | 1013.9 |
| 20260505030519 | 63 | 204 | 1.0 | 2.0 | 0.00 | 0.00 | 0.00 | 65 | 1013.9 |
| 20260505030316 | 63 | 204 | 1.0 | 2.0 | 0.00 | 0.00 | 0.00 | 65 | 1013.9 |
| 20260505030110 | 0 | 0 | 0.0 | 0.0 | 0.00 | 0.00 | 0.00 | 100 | 1013.9 |
| 20260505025907 | 0 | 0 | 0.0 | 0.0 | 0.00 | 0.00 | 0.00 | 100 | 1013.5 |
| 20260505025845 | 0 | 0 | 0.0 | 0.0 | 0.00 | 0.00 | 0.00 | 100 | 1013.9 |
| 20260505025425 | 0 | 0 | 0.0 | 0.0 | 0.00 | 0.00 | 0.00 | 100 | 1013.5 |
| 20260505025220 | 0 | 0 | 0.0 | 0.0 | 0.00 | 0.00 | 0.00 | 100 | 1013.5 |
| 20260505025159 | 0 | 0 | 0.0 | 0.0 | 0.00 | 0.00 | 0.00 | 100 | 1013.5 |
| 20260505024741 | 0 | 0 | 0.0 | 0.0 | 0.00 | 0.00 | 0.00 | 100 | 1013.9 |
| 20260505024538 | 0 | 0 | 0.0 | 0.0 | 0.00 | 0.00 | 0.00 | 100 | 1013.5 |
| 20260505024332 | 0 | 0 | 0.0 | 0.0 | 0.00 | 0.00 | 0.00 | 100 | 1013.5 |
| 20260505024128 | 0 | 0 | 0.0 | 0.0 | 0.00 | 0.00 | 0.00 | 100 | 1013.5 |
| 20260505023922 | 0 | 0 | 0.0 | 0.0 | 0.00 | 0.00 | 0.00 | 100 | 1013.5 |
| 20260505023719 | 0 | 0 | 0.0 | 0.0 | 0.00 | 0.00 | 0.00 | 100 | 1013.5 |
| 20260505023515 | 0 | 0 | 0.0 | 0.0 | 0.00 | 0.00 | 0.00 | 100 | 1013.5 |
| 20260505023309 | 0 | 0 | 0.0 | 0.0 | 0.00 | 0.00 | 0.00 | 100 | 1013.5 |
| 20260505023105 | 67 | 219 | 5.0 | 5.0 | 0.00 | 0.00 | 0.00 | 60 | 1013.5 |
| 20260505022901 | 67 | 219 | 5.0 | 5.0 | 0.00 | 0.00 | 0.00 | 60 | 1013.5 |
| 20260505022657 | 67 | 219 | 5.0 | 5.0 | 0.00 | 0.00 | 0.00 | 60 | 1013.5 |
| 20260505022453 | 67 | 219 | 5.0 | 5.0 | 0.00 | 0.00 | 0.00 | 60 | 1013.5 |
| 20260505022249 | 67 | 219 | 5.0 | 5.0 | 0.00 | 0.00 | 0.00 | 60 | 1013.9 |
| 20260505022044 | 67 | 219 | 5.0 | 5.0 | 0.00 | 0.00 | 0.00 | 60 | 1013.5 |
| 20260505021840 | 67 | 197 | 7.0 | 7.0 | 0.00 | 0.00 | 0.00 | 59 | 1013.5 |
| 20260505021634 | 68 | 159 | 8.0 | 10.0 | 0.00 | 0.00 | 0.00 | 58 | 1013.5 |
| 20260505021424 | 68 | 159 | 8.0 | 10.0 | 0.00 | 0.00 | 0.00 | 58 | 1013.5 |
| 20260505021221 | 68 | 159 | 8.0 | 10.0 | 0.00 | 0.00 | 0.00 | 58 | 1013.5 |
| 20260505021016 | 68 | 159 | 8.0 | 10.0 | 0.00 | 0.00 | 0.00 | 58 | 1013.5 |
| 20260505020811 | 68 | 201 | 8.0 | 10.0 | 0.00 | 0.00 | 0.00 | 58 | 1013.5 |
| 20260505020749 | 0 | 0 | 0.0 | 0.0 | 0.00 | 0.00 | 0.00 | 100 | 1013.5 |
| 20260505020514 | 0 | 0 | 0.0 | 0.0 | 0.00 | 0.00 | 0.00 | 100 | 1013.5 |
| 20260505020056 | 0 | 0 | 0.0 | 0.0 | 0.00 | 0.00 | 0.00 | 100 | 1013.5 |
| 20260505015850 | 0 | 0 | 0.0 | 0.0 | 0.00 | 0.00 | 0.00 | 100 | 1013.5 |
| 20260505015644 | 0 | 0 | 0.0 | 0.0 | 0.00 | 0.00 | 0.00 | 100 | 1013.5 |
| 20260505015418 | 0 | 0 | 0.0 | 0.0 | 0.00 | 0.00 | 0.00 | 100 | 1013.5 |
| 20260505015001 | 0 | 0 | 0.0 | 0.0 | 0.00 | 0.00 | 0.00 | 100 | 1013.5 |
| 20260505014732 | 0 | 0 | 0.0 | 0.0 | 0.00 | 0.00 | 0.00 | 100 | 1013.5 |
| 20260505014310 | 72 | 201 | 6.0 | 7.0 | 0.00 | 0.00 | 0.00 | 54 | 1013.5 |
| 20260505014102 | 72 | 201 | 6.0 | 7.0 | 0.00 | 0.00 | 0.00 | 54 | 1013.2 |
| 20260505013857 | 72 | 201 | 6.0 | 7.0 | 0.00 | 0.00 | 0.00 | 54 | 1013.5 |
| 20260505013648 | 72 | 201 | 6.0 | 7.0 | 0.00 | 0.00 | 0.00 | 54 | 1013.5 |
| 20260505013442 | 72 | 201 | 6.0 | 7.0 | 0.00 | 0.00 | 0.00 | 54 | 1013.5 |
| 20260505013235 | 72 | 196 | 5.0 | 7.0 | 0.00 | 0.00 | 0.00 | 54 | 1013.5 |
| 20260505013031 | 0 | 0 | 0.0 | 0.0 | 0.00 | 0.00 | 0.00 | 100 | 1013.5 |
| 20260505012826 | 0 | 0 | 0.0 | 0.0 | 0.00 | 0.00 | 0.00 | 100 | 1013.5 |
| 20260505012619 | 0 | 0 | 0.0 | 0.0 | 0.00 | 0.00 | 0.00 | 100 | 1013.5 |
| 20260505012415 | 0 | 0 | 0.0 | 0.0 | 0.00 | 0.00 | 0.00 | 100 | 1013.5 |
| 20260505012211 | 0 | 0 | 0.0 | 0.0 | 0.00 | 0.00 | 0.00 | 100 | 1013.5 |
| 20260505012003 | 0 | 0 | 0.0 | 0.0 | 0.00 | 0.00 | 0.00 | 100 | 1013.5 |
| 20260505011758 | 74 | 194 | 3.0 | 4.0 | 0.00 | 0.00 | 0.00 | 53 | 1013.9 |
| 20260505011554 | 74 | 194 | 3.0 | 4.0 | 0.00 | 0.00 | 0.00 | 53 | 1013.5 |
| 20260505011348 | 74 | 194 | 3.0 | 4.0 | 0.00 | 0.00 | 0.00 | 53 | 1013.5 |
| 20260505011142 | 74 | 194 | 3.0 | 4.0 | 0.00 | 0.00 | 0.00 | 53 | 1013.5 |
| 20260505010938 | 74 | 194 | 3.0 | 4.0 | 0.00 | 0.00 | 0.00 | 53 | 1013.5 |
| 20260505010734 | 74 | 153 | 7.0 | 10.0 | 0.00 | 0.00 | 0.00 | 53 | 1013.5 |
| 20260505010529 | 74 | 152 | 5.0 | 7.0 | 0.00 | 0.00 | 0.00 | 53 | 1013.5 |
| 20260505010325 | 74 | 152 | 5.0 | 7.0 | 0.00 | 0.00 | 0.00 | 53 | 1013.5 |
| 20260505010119 | 74 | 223 | 5.0 | 7.0 | 0.00 | 0.00 | 0.00 | 54 | 1013.5 |
| 20260505005913 | 74 | 186 | 3.0 | 4.0 | 0.00 | 0.00 | 0.00 | 54 | 1013.5 |
| 20260505005852 | 74 | 186 | 3.0 | 4.0 | 0.00 | 0.00 | 0.00 | 54 | 1013.5 |
| 20260505005431 | 74 | 186 | 3.0 | 4.0 | 0.00 | 0.00 | 0.00 | 54 | 1013.5 |
| 20260505005227 | 74 | 203 | 8.0 | 10.0 | 0.00 | 0.00 | 0.00 | 53 | 1013.5 |
| 20260505005021 | 74 | 203 | 8.0 | 10.0 | 0.00 | 0.00 | 0.00 | 53 | 1013.5 |
| 20260505004815 | 75 | 224 | 3.0 | 5.0 | 0.00 | 0.00 | 0.00 | 54 | 1013.5 |
| 20260505004609 | 74 | 220 | 5.0 | 7.0 | 0.00 | 0.00 | 0.00 | 54 | 1013.5 |
| 20260505004403 | 74 | 180 | 7.0 | 9.0 | 0.00 | 0.00 | 0.00 | 54 | 1013.5 |
| 20260505004159 | 74 | 222 | 4.0 | 5.0 | 0.00 | 0.00 | 0.00 | 55 | 1013.5 |
| 20260505003952 | 74 | 131 | 5.0 | 7.0 | 0.00 | 0.00 | 0.00 | 55 | 1013.5 |
| 20260505003748 | 74 | 131 | 5.0 | 7.0 | 0.00 | 0.00 | 0.00 | 55 | 1013.5 |
| 20260505003541 | 74 | 157 | 7.0 | 8.0 | 0.00 | 0.00 | 0.00 | 55 | 1013.5 |
| 20260505003337 | 74 | 210 | 7.0 | 9.0 | 0.00 | 0.00 | 0.00 | 55 | 1013.5 |
| 20260505003127 | 74 | 210 | 7.0 | 9.0 | 0.00 | 0.00 | 0.00 | 55 | 1013.5 |
| 20260505002922 | 74 | 210 | 7.0 | 9.0 | 0.00 | 0.00 | 0.00 | 55 | 1013.5 |
| 20260505002712 | 74 | 154 | 5.0 | 7.0 | 0.00 | 0.00 | 0.00 | 55 | 1013.9 |
| 20260505002508 | 74 | 168 | 4.0 | 6.0 | 0.00 | 0.00 | 0.00 | 54 | 1013.5 |
| 20260505002304 | 74 | 175 | 2.0 | 3.0 | 0.00 | 0.00 | 0.00 | 55 | 1013.5 |
| 20260505002241 | 74 | 189 | 6.0 | 7.0 | 0.00 | 0.00 | 0.00 | 55 | 1013.5 |
| 20260505001819 | 74 | 193 | 8.0 | 10.0 | 0.00 | 0.00 | 0.00 | 54 | 1013.5 |
| 20260505001612 | 74 | 158 | 8.0 | 10.0 | 0.00 | 0.00 | 0.00 | 54 | 1013.9 |
| 20260505001405 | 74 | 190 | 2.0 | 5.0 | 0.00 | 0.00 | 0.00 | 55 | 1013.5 |
| 20260505001158 | 74 | 168 | 3.0 | 3.0 | 0.00 | 0.00 | 0.00 | 55 | 1013.5 |
| 20260505000954 | 74 | 207 | 9.0 | 10.0 | 0.00 | 0.00 | 0.00 | 54 | 1013.5 |
| 20260505000750 | 74 | 176 | 6.0 | 7.0 | 0.00 | 0.00 | 0.00 | 55 | 1013.5 |
| 20260505000727 | 74 | 164 | 5.0 | 7.0 | 0.00 | 0.00 | 0.00 | 53 | 1013.9 |
| 20260505000310 | 74 | 164 | 5.0 | 7.0 | 0.00 | 0.00 | 0.00 | 53 | 1013.5 |
| 20260505000105 | 74 | 214 | 5.0 | 7.0 | 0.00 | 0.00 | 0.00 | 53 | 1013.9 |
| 20260504235901 | 75 | 135 | 6.0 | 8.0 | 0.00 | 0.00 | 0.00 | 53 | 1013.9 |
| 20260504235657 | 75 | 135 | 6.0 | 8.0 | 0.00 | 0.00 | 0.00 | 53 | 1013.9 |
| 20260504235453 | 74 | 176 | 4.0 | 7.0 | 0.00 | 0.00 | 0.00 | 53 | 1013.9 |
| 20260504235246 | 74 | 176 | 4.0 | 7.0 | 0.00 | 0.00 | 0.00 | 53 | 1013.9 |
| 20260504235040 | 74 | 180 | 5.0 | 6.0 | 0.00 | 0.00 | 0.00 | 54 | 1013.9 |
| 20260504234836 | 74 | 180 | 5.0 | 6.0 | 0.00 | 0.00 | 0.00 | 54 | 1013.9 |
| 20260504234632 | 74 | 140 | 9.0 | 12.0 | 0.00 | 0.00 | 0.00 | 54 | 1013.9 |
| 20260504234424 | 74 | 140 | 9.0 | 12.0 | 0.00 | 0.00 | 0.00 | 54 | 1013.9 |
| 20260504234214 | 0 | 0 | 0.0 | 0.0 | 0.00 | 0.00 | 0.00 | 100 | 1013.9 |
| 20260504234151 | 0 | 0 | 0.0 | 0.0 | 0.00 | 0.00 | 0.00 | 100 | 1013.9 |
| 20260504233733 | 0 | 0 | 0.0 | 0.0 | 0.00 | 0.00 | 0.00 | 100 | 1013.9 |
| 20260504233529 | 0 | 0 | 0.0 | 0.0 | 0.00 | 0.00 | 0.00 | 100 | 1014.2 |
| 20260504233325 | 0 | 0 | 0.0 | 0.0 | 0.00 | 0.00 | 0.00 | 100 | 1013.9 |
| 20260504233119 | 0 | 0 | 0.0 | 0.0 | 0.00 | 0.00 | 0.00 | 100 | 1013.9 |
| 20260504232915 | 0 | 0 | 0.0 | 0.0 | 0.00 | 0.00 | 0.00 | 100 | 1013.9 |
| 20260504232711 | 0 | 0 | 0.0 | 0.0 | 0.00 | 0.00 | 0.00 | 100 | 1013.9 |
| 20260504232507 | 74 | 198 | 4.0 | 5.0 | 0.00 | 0.00 | 0.00 | 54 | 1014.2 |
| 20260504232303 | 74 | 198 | 4.0 | 5.0 | 0.00 | 0.00 | 0.00 | 54 | 1013.9 |
| 20260504232057 | 74 | 198 | 4.0 | 5.0 | 0.00 | 0.00 | 0.00 | 54 | 1013.9 |
| 20260504231853 | 74 | 198 | 4.0 | 5.0 | 0.00 | 0.00 | 0.00 | 54 | 1013.9 |
| 20260504231649 | 74 | 198 | 4.0 | 5.0 | 0.00 | 0.00 | 0.00 | 54 | 1013.9 |
| 20260504231445 | 74 | 198 | 4.0 | 5.0 | 0.00 | 0.00 | 0.00 | 54 | 1014.2 |
| 20260504231242 | 74 | 179 | 4.0 | 5.0 | 0.00 | 0.00 | 0.00 | 54 | 1014.2 |
| 20260504231037 | 74 | 146 | 5.0 | 7.0 | 0.00 | 0.00 | 0.00 | 54 | 1013.9 |
| 20260504230834 | 74 | 108 | 6.0 | 7.0 | 0.00 | 0.00 | 0.00 | 55 | 1014.2 |
| 20260504230622 | 74 | 178 | 4.0 | 5.0 | 0.00 | 0.00 | 0.00 | 54 | 1013.9 |
| 20260504230418 | 74 | 123 | 7.0 | 10.0 | 0.00 | 0.00 | 0.00 | 55 | 1014.2 |
| 20260504230214 | 73 | 182 | 6.0 | 7.0 | 0.00 | 0.00 | 0.00 | 54 | 1013.9 |
| 20260504230010 | 73 | 182 | 6.0 | 7.0 | 0.00 | 0.00 | 0.00 | 54 | 1013.9 |
| 20260504225949 | 73 | 139 | 5.0 | 7.0 | 0.00 | 0.00 | 0.00 | 55 | 1014.2 |
| 20260504225510 | 73 | 139 | 5.0 | 7.0 | 0.00 | 0.00 | 0.00 | 55 | 1014.2 |
| 20260504225027 | 74 | 180 | 6.0 | 9.0 | 0.00 | 0.00 | 0.00 | 54 | 1014.2 |
| 20260504224609 | 74 | 113 | 3.0 | 7.0 | 0.00 | 0.00 | 0.00 | 55 | 1014.6 |
| 20260504224403 | 73 | 123 | 6.0 | 8.0 | 0.00 | 0.00 | 0.00 | 54 | 1014.2 |
| 20260504224158 | 73 | 123 | 6.0 | 8.0 | 0.00 | 0.00 | 0.00 | 54 | 1014.2 |
| 20260504223954 | 74 | 128 | 7.0 | 9.0 | 0.00 | 0.00 | 0.00 | 54 | 1014.2 |
| 20260504223750 | 73 | 131 | 2.0 | 3.0 | 0.00 | 0.00 | 0.00 | 54 | 1014.6 |
| 20260504223546 | 73 | 186 | 6.0 | 8.0 | 0.00 | 0.00 | 0.00 | 56 | 1014.6 |
| 20260504223341 | 73 | 186 | 6.0 | 8.0 | 0.00 | 0.00 | 0.00 | 56 | 1014.6 |
| 20260504223135 | 73 | 97 | 5.0 | 6.0 | 0.00 | 0.00 | 0.00 | 55 | 1014.6 |
| 20260504222930 | 73 | 123 | 2.0 | 3.0 | 0.00 | 0.00 | 0.00 | 55 | 1014.6 |
| 20260504222727 | 73 | 168 | 5.0 | 6.0 | 0.00 | 0.00 | 0.00 | 54 | 1014.6 |
| 20260504222520 | 73 | 174 | 3.0 | 4.0 | 0.00 | 0.00 | 0.00 | 55 | 1014.6 |
| 20260504222316 | 73 | 121 | 6.0 | 8.0 | 0.00 | 0.00 | 0.00 | 55 | 1014.6 |
| 20260504222112 | 73 | 95 | 6.0 | 7.0 | 0.00 | 0.00 | 0.00 | 55 | 1014.6 |
| 20260504221906 | 73 | 152 | 3.0 | 4.0 | 0.00 | 0.00 | 0.00 | 55 | 1014.6 |
| 20260504221700 | 72 | 137 | 0.0 | 1.0 | 0.00 | 0.00 | 0.00 | 55 | 1014.6 |
| 20260504221456 | 72 | 137 | 0.0 | 1.0 | 0.00 | 0.00 | 0.00 | 55 | 1014.6 |
| 20260504221248 | 72 | 137 | 0.0 | 1.0 | 0.00 | 0.00 | 0.00 | 55 | 1014.6 |
| 20260504221044 | 72 | 94 | 4.0 | 5.0 | 0.00 | 0.00 | 0.00 | 56 | 1014.6 |
| 20260504220840 | 72 | 190 | 3.0 | 4.0 | 0.00 | 0.00 | 0.00 | 56 | 1014.6 |
| 20260504220637 | 72 | 198 | 5.0 | 7.0 | 0.00 | 0.00 | 0.00 | 55 | 1014.6 |
| 20260504220429 | 72 | 198 | 5.0 | 7.0 | 0.00 | 0.00 | 0.00 | 55 | 1014.6 |
| 20260504220225 | 71 | 220 | 4.0 | 5.0 | 0.00 | 0.00 | 0.00 | 57 | 1014.6 |
| 20260504220021 | 71 | 136 | 3.0 | 4.0 | 0.00 | 0.00 | 0.00 | 56 | 1014.6 |
| 20260504215816 | 71 | 141 | 4.0 | 5.0 | 0.00 | 0.00 | 0.00 | 56 | 1014.9 |
| 20260504215613 | 72 | 169 | 5.0 | 7.0 | 0.00 | 0.00 | 0.00 | 56 | 1014.9 |
| 20260504215406 | 72 | 142 | 7.0 | 10.0 | 0.00 | 0.00 | 0.00 | 56 | 1014.6 |
| 20260504215203 | 71 | 67 | 7.0 | 7.0 | 0.00 | 0.00 | 0.00 | 56 | 1014.9 |
| 20260504215141 | 71 | 108 | 3.0 | 5.0 | 0.00 | 0.00 | 0.00 | 57 | 1014.9 |
| 20260504214720 | 71 | 104 | 3.0 | 3.0 | 0.00 | 0.00 | 0.00 | 57 | 1014.6 |
| 20260504214516 | 71 | 86 | 4.0 | 6.0 | 0.00 | 0.00 | 0.00 | 56 | 1014.9 |
| 20260504214312 | 71 | 115 | 6.0 | 8.0 | 0.00 | 0.00 | 0.00 | 56 | 1015.2 |
| 20260504214248 | 71 | 136 | 3.0 | 5.0 | 0.00 | 0.00 | 0.00 | 57 | 1014.9 |
| 20260504214012 | 71 | 110 | 5.0 | 6.0 | 0.00 | 0.00 | 0.00 | 56 | 1015.2 |
| 20260504213553 | 71 | 159 | 6.0 | 7.0 | 0.00 | 0.00 | 0.00 | 57 | 1014.9 |
| 20260504213349 | 71 | 165 | 2.0 | 4.0 | 0.00 | 0.00 | 0.00 | 58 | 1014.9 |
| 20260504213145 | 70 | 97 | 7.0 | 10.0 | 0.00 | 0.00 | 0.00 | 57 | 1015.2 |
| 20260504212939 | 71 | 99 | 9.0 | 11.0 | 0.00 | 0.00 | 0.00 | 57 | 1014.9 |
| 20260504212917 | 70 | 164 | 2.0 | 3.0 | 0.00 | 0.00 | 0.00 | 57 | 1015.2 |
| 20260504212457 | 70 | 126 | 2.0 | 2.0 | 0.00 | 0.00 | 0.00 | 57 | 1014.9 |
| 20260504212253 | 70 | 145 | 3.0 | 3.0 | 0.00 | 0.00 | 0.00 | 57 | 1015.2 |
| 20260504212232 | 70 | 126 | 7.0 | 10.0 | 0.00 | 0.00 | 0.00 | 58 | 1015.2 |
| 20260504211815 | 70 | 131 | 1.0 | 2.0 | 0.00 | 0.00 | 0.00 | 59 | 1015.2 |
| 20260504211612 | 69 | 186 | 5.0 | 5.0 | 0.00 | 0.00 | 0.00 | 59 | 1015.2 |
| 20260504211550 | 69 | 137 | 3.0 | 3.0 | 0.00 | 0.00 | 0.00 | 59 | 1015.6 |
| 20260504211128 | 69 | 137 | 3.0 | 3.0 | 0.00 | 0.00 | 0.00 | 59 | 1015.6 |
| 20260504210901 | 70 | 30 | 5.0 | 7.0 | 0.00 | 0.00 | 0.00 | 58 | 1015.6 |
| 20260504210625 | 70 | 30 | 5.0 | 7.0 | 0.00 | 0.00 | 0.00 | 58 | 1015.6 |
| 20260504210204 | 69 | 109 | 0.0 | 1.0 | 0.00 | 0.00 | 0.00 | 57 | 1015.6 |
| 20260504210142 | 69 | 109 | 0.0 | 1.0 | 0.00 | 0.00 | 0.00 | 57 | 1015.6 |
| 20260504205704 | 69 | 171 | 2.0 | 5.0 | 0.00 | 0.00 | 0.00 | 60 | 1015.6 |
| 20260504205244 | 69 | 169 | 6.0 | 7.0 | 0.00 | 0.00 | 0.00 | 57 | 1015.6 |
| 20260504205222 | 69 | 150 | 6.0 | 7.0 | 0.00 | 0.00 | 0.00 | 58 | 1015.6 |
| 20260504204804 | 69 | 77 | 3.0 | 5.0 | 0.00 | 0.00 | 0.00 | 59 | 1015.6 |
| 20260504204743 | 69 | 77 | 3.0 | 5.0 | 0.00 | 0.00 | 0.00 | 59 | 1015.6 |
| 20260504204322 | 69 | 77 | 3.0 | 5.0 | 0.00 | 0.00 | 0.00 | 59 | 1015.6 |
| 20260504204118 | 69 | 77 | 3.0 | 5.0 | 0.00 | 0.00 | 0.00 | 59 | 1015.9 |
| 20260504203912 | 69 | 77 | 3.0 | 5.0 | 0.00 | 0.00 | 0.00 | 59 | 1015.6 |
| 20260504203709 | 68 | 162 | 6.0 | 7.0 | 0.00 | 0.00 | 0.00 | 59 | 1015.6 |
| 20260504203647 | 68 | 221 | 2.0 | 4.0 | 0.00 | 0.00 | 0.00 | 59 | 1015.9 |
| 20260504203225 | 68 | 221 | 2.0 | 4.0 | 0.00 | 0.00 | 0.00 | 59 | 1015.6 |
| 20260504203021 | 68 | 221 | 2.0 | 4.0 | 0.00 | 0.00 | 0.00 | 59 | 1015.6 |
| 20260504202815 | 67 | 185 | 4.0 | 5.0 | 0.00 | 0.00 | 0.00 | 61 | 1015.9 |
| 20260504202609 | 67 | 185 | 4.0 | 5.0 | 0.00 | 0.00 | 0.00 | 61 | 1015.9 |
| 20260504202405 | 67 | 156 | 0.0 | 2.0 | 0.00 | 0.00 | 0.00 | 59 | 1015.9 |
| 20260504202201 | 67 | 156 | 0.0 | 2.0 | 0.00 | 0.00 | 0.00 | 59 | 1015.9 |
| 20260504201958 | 67 | 156 | 0.0 | 2.0 | 0.00 | 0.00 | 0.00 | 59 | 1016.3 |
| 20260504201751 | 67 | 156 | 0.0 | 2.0 | 0.00 | 0.00 | 0.00 | 59 | 1015.9 |
| 20260504201545 | 68 | 156 | 3.0 | 5.0 | 0.00 | 0.00 | 0.00 | 59 | 1015.9 |
| 20260504201336 | 68 | 93 | 4.0 | 5.0 | 0.00 | 0.00 | 0.00 | 59 | 1015.9 |
| 20260504201311 | 68 | 130 | 4.0 | 6.0 | 0.00 | 0.00 | 0.00 | 60 | 1015.9 |
| 20260504200854 | 67 | 101 | 3.0 | 5.0 | 0.00 | 0.00 | 0.00 | 60 | 1015.9 |
| 20260504200649 | 67 | 107 | 4.0 | 5.0 | 0.00 | 0.00 | 0.00 | 60 | 1015.9 |
| 20260504200445 | 67 | 123 | 4.0 | 6.0 | 0.00 | 0.00 | 0.00 | 60 | 1016.3 |
| 20260504200239 | 67 | 70 | 2.0 | 5.0 | 0.00 | 0.00 | 0.00 | 61 | 1015.9 |
| 20260504200033 | 67 | 215 | 2.0 | 4.0 | 0.00 | 0.00 | 0.00 | 60 | 1016.3 |
| 20260504195827 | 67 | 231 | 3.0 | 3.0 | 0.00 | 0.00 | 0.00 | 58 | 1016.3 |
| 20260504195617 | 67 | 168 | 3.0 | 5.0 | 0.00 | 0.00 | 0.00 | 60 | 1015.9 |
| 20260504195412 | 66 | 106 | 1.0 | 2.0 | 0.00 | 0.00 | 0.00 | 61 | 1015.9 |
| 20260504195207 | 67 | 55 | 2.0 | 3.0 | 0.00 | 0.00 | 0.00 | 60 | 1016.3 |
| 20260504195003 | 66 | 115 | 2.0 | 3.0 | 0.00 | 0.00 | 0.00 | 60 | 1015.9 |
| 20260504194941 | 66 | 149 | 4.0 | 5.0 | 0.00 | 0.00 | 0.00 | 61 | 1015.9 |
| 20260504194524 | 65 | 150 | 2.0 | 2.0 | 0.00 | 0.00 | 0.00 | 62 | 1016.3 |
| 20260504194502 | 65 | 143 | 5.0 | 6.0 | 0.00 | 0.00 | 0.00 | 61 | 1016.3 |
| 20260504194042 | 65 | 106 | 5.0 | 5.0 | 0.00 | 0.00 | 0.00 | 63 | 1016.3 |
| 20260504193838 | 65 | 95 | 3.0 | 3.0 | 0.00 | 0.00 | 0.00 | 62 | 1016.3 |
| 20260504193634 | 65 | 155 | 1.0 | 2.0 | 0.00 | 0.00 | 0.00 | 62 | 1016.3 |
| 20260504193610 | 65 | 135 | 5.0 | 6.0 | 0.00 | 0.00 | 0.00 | 63 | 1016.3 |
| 20260504193151 | 65 | 135 | 5.0 | 6.0 | 0.00 | 0.00 | 0.00 | 63 | 1016.3 |
| 20260504192947 | 65 | 115 | 7.0 | 9.0 | 0.00 | 0.00 | 0.00 | 62 | 1016.3 |
| 20260504192744 | 65 | 115 | 7.0 | 9.0 | 0.00 | 0.00 | 0.00 | 62 | 1016.3 |
| 20260504192538 | 64 | 145 | 3.0 | 4.0 | 0.00 | 0.00 | 0.00 | 64 | 1016.3 |
| 20260504192334 | 64 | 123 | 3.0 | 5.0 | 0.00 | 0.00 | 0.00 | 63 | 1016.3 |
| 20260504192312 | 64 | 108 | 3.0 | 3.0 | 0.00 | 0.00 | 0.00 | 63 | 1016.3 |
| 20260504191854 | 64 | 74 | 3.0 | 5.0 | 0.00 | 0.00 | 0.00 | 64 | 1016.3 |
| 20260504191651 | 63 | 123 | 2.0 | 2.0 | 0.00 | 0.00 | 0.00 | 64 | 1016.3 |
| 20260504191448 | 63 | 195 | 6.0 | 7.0 | 0.00 | 0.00 | 0.00 | 65 | 1016.3 |
| 20260504191243 | 63 | 177 | 4.0 | 6.0 | 0.00 | 0.00 | 0.00 | 66 | 1016.3 |
| 20260504191040 | 63 | 142 | 3.0 | 4.0 | 0.00 | 0.00 | 0.00 | 65 | 1016.6 |
| 20260504190836 | 63 | 123 | 4.0 | 7.0 | 0.00 | 0.00 | 0.00 | 65 | 1016.3 |
| 20260504190628 | 63 | 96 | 0.0 | 1.0 | 0.00 | 0.00 | 0.00 | 65 | 1016.6 |
| 20260504190423 | 63 | 131 | 5.0 | 6.0 | 0.00 | 0.00 | 0.00 | 64 | 1016.6 |
| 20260504190401 | 63 | 107 | 4.0 | 5.0 | 0.00 | 0.00 | 0.00 | 66 | 1016.6 |
| 20260504185943 | 62 | 151 | 3.0 | 5.0 | 0.00 | 0.00 | 0.00 | 66 | 1016.6 |
| 20260504185740 | 62 | 55 | 4.0 | 5.0 | 0.00 | 0.00 | 0.00 | 65 | 1016.6 |
| 20260504185534 | 62 | 138 | 2.0 | 3.0 | 0.00 | 0.00 | 0.00 | 65 | 1016.6 |
| 20260504185330 | 0 | 0 | 0.0 | 0.0 | 0.00 | 0.00 | 0.00 | 100 | 1016.6 |
| 20260504185123 | 0 | 0 | 0.0 | 0.0 | 0.00 | 0.00 | 0.00 | 100 | 1016.6 |
| 20260504184918 | 0 | 0 | 0.0 | 0.0 | 0.00 | 0.00 | 0.00 | 100 | 1016.6 |
| 20260504184856 | 0 | 0 | 0.0 | 0.0 | 0.00 | 0.00 | 0.00 | 100 | 1016.6 |
| 20260504184621 | 0 | 0 | 0.0 | 0.0 | 0.00 | 0.00 | 0.00 | 100 | 1016.6 |
| 20260504184201 | 60 | 125 | 4.0 | 6.0 | 0.00 | 0.00 | 0.00 | 70 | 1016.6 |
| 20260504183957 | 60 | 125 | 4.0 | 6.0 | 0.00 | 0.00 | 0.00 | 70 | 1016.3 |
| 20260504183753 | 60 | 125 | 4.0 | 6.0 | 0.00 | 0.00 | 0.00 | 70 | 1016.6 |
| 20260504183548 | 60 | 125 | 4.0 | 6.0 | 0.00 | 0.00 | 0.00 | 70 | 1016.6 |
| 20260504183344 | 60 | 125 | 4.0 | 6.0 | 0.00 | 0.00 | 0.00 | 70 | 1016.6 |
| 20260504183119 | 0 | 0 | 0.0 | 0.0 | 0.00 | 0.00 | 0.00 | 100 | 1016.6 |
| 20260504182843 | 0 | 0 | 0.0 | 0.0 | 0.00 | 0.00 | 0.00 | 100 | 1016.6 |
| 20260504182424 | 0 | 0 | 0.0 | 0.0 | 0.00 | 0.00 | 0.00 | 100 | 1016.6 |
| 20260504182220 | 0 | 0 | 0.0 | 0.0 | 0.00 | 0.00 | 0.00 | 100 | 1016.6 |
| 20260504182016 | 0 | 0 | 0.0 | 0.0 | 0.00 | 0.00 | 0.00 | 100 | 1016.9 |
| 20260504181955 | 0 | 0 | 0.0 | 0.0 | 0.00 | 0.00 | 0.00 | 100 | 1016.6 |
| 20260504181535 | 0 | 0 | 0.0 | 0.0 | 0.00 | 0.00 | 0.00 | 100 | 1016.6 |
| 20260504181331 | 0 | 0 | 0.0 | 0.0 | 0.00 | 0.00 | 0.00 | 100 | 1016.6 |
| 20260504181127 | 0 | 0 | 0.0 | 0.0 | 0.00 | 0.00 | 0.00 | 100 | 1016.6 |
| 20260504180923 | 0 | 0 | 0.0 | 0.0 | 0.00 | 0.00 | 0.00 | 100 | 1016.6 |
| 20260504180718 | 0 | 0 | 0.0 | 0.0 | 0.00 | 0.00 | 0.00 | 100 | 1016.6 |
| 20260504180514 | 0 | 0 | 0.0 | 0.0 | 0.00 | 0.00 | 0.00 | 100 | 1016.6 |
| 20260504180310 | 0 | 0 | 0.0 | 0.0 | 0.00 | 0.00 | 0.00 | 100 | 1016.6 |
| 20260504180246 | 0 | 0 | 0.0 | 0.0 | 0.00 | 0.00 | 0.00 | 100 | 1016.6 |
| 20260504175828 | 0 | 0 | 0.0 | 0.0 | 0.00 | 0.00 | 0.00 | 100 | 1016.6 |
| 20260504175625 | 0 | 0 | 0.0 | 0.0 | 0.00 | 0.00 | 0.00 | 100 | 1016.6 |
| 20260504175421 | 0 | 0 | 0.0 | 0.0 | 0.00 | 0.00 | 0.00 | 100 | 1016.6 |
| 20260504175217 | 0 | 0 | 0.0 | 0.0 | 0.00 | 0.00 | 0.00 | 100 | 1016.6 |
| 20260504175012 | 0 | 0 | 0.0 | 0.0 | 0.00 | 0.00 | 0.00 | 100 | 1016.6 |
| 20260504174808 | 58 | 152 | 5.0 | 6.0 | 0.00 | 0.00 | 0.00 | 73 | 1016.3 |
| 20260504174603 | 58 | 152 | 5.0 | 6.0 | 0.00 | 0.00 | 0.00 | 73 | 1016.3 |
| 20260504174400 | 58 | 152 | 5.0 | 6.0 | 0.00 | 0.00 | 0.00 | 73 | 1016.6 |
| 20260504174156 | 58 | 152 | 5.0 | 6.0 | 0.00 | 0.00 | 0.00 | 73 | 1016.6 |
| 20260504173952 | 58 | 152 | 5.0 | 6.0 | 0.00 | 0.00 | 0.00 | 73 | 1016.6 |
| 20260504173748 | 0 | 0 | 0.0 | 0.0 | 0.00 | 0.00 | 0.00 | 100 | 1016.3 |
| 20260504173542 | 0 | 0 | 0.0 | 0.0 | 0.00 | 0.00 | 0.00 | 100 | 1016.6 |
| 20260504173520 | 58 | 125 | 5.0 | 7.0 | 0.00 | 0.00 | 0.00 | 73 | 1016.3 |
| 20260504173104 | 58 | 125 | 5.0 | 7.0 | 0.00 | 0.00 | 0.00 | 73 | 1016.6 |
| 20260504172900 | 58 | 125 | 5.0 | 7.0 | 0.00 | 0.00 | 0.00 | 73 | 1016.3 |
| 20260504172656 | 58 | 125 | 5.0 | 7.0 | 0.00 | 0.00 | 0.00 | 73 | 1016.6 |
| 20260504172453 | 58 | 125 | 5.0 | 7.0 | 0.00 | 0.00 | 0.00 | 73 | 1016.6 |
| 20260504172244 | 58 | 171 | 0.0 | 1.0 | 0.00 | 0.00 | 0.00 | 74 | 1016.6 |
| 20260504172041 | 58 | 171 | 0.0 | 1.0 | 0.00 | 0.00 | 0.00 | 74 | 1016.6 |
| 20260504171838 | 58 | 171 | 0.0 | 1.0 | 0.00 | 0.00 | 0.00 | 74 | 1016.6 |
| 20260504171631 | 58 | 171 | 0.0 | 1.0 | 0.00 | 0.00 | 0.00 | 74 | 1016.6 |
| 20260504171609 | 57 | 91 | 5.0 | 7.0 | 0.00 | 0.00 | 0.00 | 74 | 1016.3 |
| 20260504171149 | 57 | 115 | 6.0 | 8.0 | 0.00 | 0.00 | 0.00 | 74 | 1016.6 |
| 20260504170945 | 57 | 94 | 1.0 | 2.0 | 0.00 | 0.00 | 0.00 | 74 | 1016.6 |
| 20260504170737 | 57 | 92 | 4.0 | 6.0 | 0.00 | 0.00 | 0.00 | 74 | 1016.3 |
| 20260504170533 | 57 | 136 | 7.0 | 9.0 | 0.00 | 0.00 | 0.00 | 74 | 1016.6 |
| 20260504170330 | 57 | 119 | 4.0 | 6.0 | 0.00 | 0.00 | 0.00 | 74 | 1016.6 |
| 20260504170307 | 57 | 133 | 3.0 | 3.0 | 0.00 | 0.00 | 0.00 | 74 | 1016.3 |
| 20260504160345 | 56 | 108 | 5.0 | 7.0 | 0.00 | 0.00 | 0.00 | 75 | 1016.6 |
| 20260504160140 | 56 | 157 | 2.0 | 3.0 | 0.00 | 0.00 | 0.00 | 76 | 1016.6 |
| 20260504150950 | 55 | 259 | 1.0 | 2.0 | 0.00 | 0.00 | 0.00 | 79 | 1016.3 |
| 20260504150744 | 55 | 137 | 3.0 | 3.0 | 0.00 | 0.00 | 0.00 | 79 | 1016.3 |
| 20260504150540 | 55 | 137 | 3.0 | 3.0 | 0.00 | 0.00 | 0.00 | 79 | 1016.3 |
| 20260504150336 | 0 | 0 | 0.0 | 0.0 | 0.00 | 0.00 | 0.00 | 100 | 1016.3 |
| 20260504150132 | 0 | 0 | 0.0 | 0.0 | 0.00 | 0.00 | 0.00 | 100 | 1016.3 |
| 20260504141145 | 54 | 119 | 0.0 | 0.0 | 0.00 | 0.00 | 0.00 | 82 | 1015.6 |
| 20260504140941 | 0 | 0 | 0.0 | 0.0 | 0.00 | 0.00 | 0.00 | 100 | 1015.6 |
| 20260504140716 | 0 | 0 | 0.0 | 0.0 | 0.00 | 0.00 | 0.00 | 100 | 1015.6 |
| 20260504140258 | 53 | 116 | 1.0 | 2.0 | 0.00 | 0.00 | 0.00 | 82 | 1015.2 |
| 20260504130654 | 51 | 190 | 0.0 | 0.0 | 0.00 | 0.00 | 0.00 | 84 | 1014.6 |
| 20260504130444 | 51 | 190 | 0.0 | 0.0 | 0.00 | 0.00 | 0.00 | 84 | 1014.6 |
| 20260504130239 | 51 | 190 | 0.0 | 0.0 | 0.00 | 0.00 | 0.00 | 84 | 1014.6 |
| 20260504110509 | 0 | 0 | 0.0 | 0.0 | 0.00 | 0.00 | 0.00 | 100 | 1013.5 |
| 20260504110447 | 0 | 0 | 0.0 | 0.0 | 0.00 | 0.00 | 0.00 | 100 | 1013.5 |